AGROBASSY Y COMPAA LIMITADA
AGROBASSY Y COMPAA LIMITADA's Shipments Over Time
Supply Ratings
Shipment Reliability and Frequency Volume of Goods
Avg. Shipments per Month: 75.56 Average TEU per month: 201.50
Active Months: 8 Average TEU per Shipment: 2.00
Shipment Frequency Std. Dev.: 96.32
Shipments By Companies
Company Name Shipments
AYCO FARMS INC 2503 shipments
AGROBASSY Y COMPAA LIMITADA 1 shipments
Shipments By HS Code
HS Code Shipments
120999 Seeds; n.e.c. in heading 1209, of a kind used for sowing 568 shipments
120999.0 Seeds, fruit and spores; of a kind used for sowing 436 shipments
080711 Fruit, edible; watermelons, fresh 370 shipments
80711.0 329 shipments
820411 Tools, hand; hand-operated spanners and wrenches (including torque meter wrenches but not including tap wrenches), non-adjustable 252 shipments
040900 Honey; natural 167 shipments
40900.0 110 shipments
820411.0 Tools, hand; hand-operated spanners and wrenches (including torque meter wrenches but not including tap wrenches), interchangeable spanner sockets, with or without handles 99 shipments
080620 Fruit, edible; grapes, dried 63 shipments
80620.0 61 shipments
080410 Fruit, edible; dates, fresh or dried 36 shipments
80410.0 12 shipments
870332 Vehicles; with only compression-ignition internal combustion piston engine (diesel or semi-diesel), cylinder capacity over 1500 but not over 2500cc 1 shipments
to show market analysis.
Similar Suppliers
to see more.
Latest Shipments
Arrival Date Bill Of Lading Consignee Weight HS Code Description
2026-03-25 GWFCGTC066032F AYCO FARMS INC 21300.0 kg 80711.0 BIN FRESH WATERMELON LARGE SEEDLESS
2026-03-25 GWFCGTC066031 AYCO FARMS INC 21300.0 kg 80711.0 BOX FRESH WATERMELON SEEDLESS
2026-03-25 GWFCGTC066032 AYCO FARMS INC 21300.0 kg 40900.0 BOX FRESH MELON HONEY DEW
2026-03-25 GWFCGTC066031D AYCO FARMS INC 21300.0 kg 80711.0 BIN FRESH WATERMELON LARGE SEEDLESS
2026-03-25 GWFCGTC066031B AYCO FARMS INC 21300.0 kg 80711.0 BOX FRESH WATERMELON SEEDLESS
2026-03-25 GWFCGTC066031A AYCO FARMS INC 21300.0 kg 80711.0 BOX FRESH WATERMELON SEEDLESS
2026-03-25 GWFCGTC066032A AYCO FARMS INC 21300.0 kg 80711.0 BOX FRESH WATERMELON LARGE SEEDLESS
2026-03-25 GWFCGTC066031C AYCO FARMS INC 21300.0 kg 80711.0 BOX FRESH WATERMELON SEEDLESS
2026-03-25 GWFCGTC066032B AYCO FARMS INC 21300.0 kg 80711.0 BIN FRESH WATERMELON LARGE SEEDLESS
2026-03-25 GWFCGTC066032C AYCO FARMS INC 21300.0 kg 80711.0 BOX FRESH WATERMELON SEEDLESS
2026-03-25 GWFCGTC066032D AYCO FARMS INC 21300.0 kg 80711.0 BIN FRESH WATERMELON LARGE SEEDLESS
2026-03-25 GWFCGTC066032E AYCO FARMS INC 21300.0 kg 80711.0 BOX FRESH WATERMELON SEEDLESS
2026-03-25 GWFCGTC066032G AYCO FARMS INC 21300.0 kg 40900.0 BOX FRESH MELON HONEY DEW
2026-03-24 GWFCGTC066056C AYCO FARMS INC 21300.0 kg 80711.0 BOX FRESH WATERMELON SEEDLESS
2026-03-24 GWFCGTC066056G AYCO FARMS INC 21300.0 kg 80711.0 BOX FRESH WATERMELON SEEDLESS
2026-03-24 GWFCGTC066056B AYCO FARMS INC 21300.0 kg 80711.0 BOX FRESH WATERMELON SEEDLESS
2026-03-24 GWFCGTC066056A AYCO FARMS INC 21300.0 kg 80711.0 BOX FRESH WATERMELON SEEDLESS
2026-03-24 GWFCGTC066056F AYCO FARMS INC 21300.0 kg 80711.0 BOX FRESH WATERMELON SEEDLESS
2026-03-24 GWFCGTC066056I AYCO FARMS INC 21300.0 kg 80711.0 BOX FRESH WATERMELON SEEDLESS
2026-03-24 GWFCGTC066056J AYCO FARMS INC 21300.0 kg 80711.0 BOX FRESH WATERMELON SEEDLESS
2026-03-24 GWFCGTC066056 AYCO FARMS INC 21300.0 kg 80620.0 BOX FRESHWATERMELON SEEDLESS
2026-03-24 GWFCGTC066056K AYCO FARMS INC 21300.0 kg 40900.0 BOX FRESHMELON HONEY DEW
2026-03-24 GWFCGTC066056D AYCO FARMS INC 21300.0 kg 80711.0 BOX FRESH WATERMELON SEEDLESS
2026-03-24 GWFCGTC066056E AYCO FARMS INC 21300.0 kg 80711.0 BOX FRESH WATERMELON SEEDLESS
2026-03-24 GWFCGTC066056H AYCO FARMS INC 21300.0 kg 80711.0 BOX FRESH WATERMELON SEEDLESS
2026-03-17 GWFCGTC065760E AYCO FARMS INC 21300.0 kg 80711.0 BOX FRESH WATERMELON SEEDLESS
2026-03-17 GWFCGTC065761A AYCO FARMS INC 21300.0 kg 40900.0 BOX FRESHMELON HONEY DEW
2026-03-17 GWFCGTC065761B AYCO FARMS INC 21300.0 kg 80711.0 BOX FRESH WATERMELON SEEDLESS
2026-03-17 GWFCGTC065760 AYCO FARMS INC 21300.0 kg 120999.0 BOX FRESH MELON CANTALOUPE
2026-03-17 GWFCGTC065761D AYCO FARMS INC 21300.0 kg 120999.0 BOX FRESH MELON CANTALOUPE
2026-03-17 GWFCGTC065760G AYCO FARMS INC 21300.0 kg 120999.0 BOX FRESH MELON CANTALOUPE
2026-03-17 GWFCGTC065760A AYCO FARMS INC 21300.0 kg 40900.0 BOX FRESH MELON HONEY DEW
2026-03-17 GWFCGTC065760D AYCO FARMS INC 21300.0 kg 80711.0 BOX FRESH WATERMELON LARGE SEEDLESS
2026-03-17 GWFCGTC065760C AYCO FARMS INC 21300.0 kg 80711.0 BOX FRESH WATERMELON SEEDLESS
2026-03-17 GWFCGTC065760B AYCO FARMS INC 21300.0 kg 120999.0 BOX FRESH MELON CANTALOUPE
2026-03-17 GWFCGTC065761 AYCO FARMS INC 21300.0 kg 120999.0 BOX FRESH MELON CANTALOUPE
2026-03-17 GWFCGTC065761F AYCO FARMS INC 21300.0 kg 80711.0 BOX FRESH WATERMELON SEEDLESS
2026-03-17 GWFCGTC065761E AYCO FARMS INC 21300.0 kg 80711.0 BOX FRESH WATERMELON SEEDLESS
2026-03-17 GWFCGTC065760F AYCO FARMS INC 21300.0 kg 120999.0 BOX FRESH MELON CANTALOUPE
2026-03-17 GWFCGTC065761C AYCO FARMS INC 21300.0 kg 80711.0 BOX FRESH WATERMELON SEEDLESS
2026-03-17 GWFCGTC065761G AYCO FARMS INC 21300.0 kg 120999.0 BOX FRESH MELON CANTALOUPE
2026-03-17 GWFCGTC065761H AYCO FARMS INC 21300.0 kg 120999.0 BOX FRESH MELON CANTALOUPE
2026-03-17 GWFCGTC065761I AYCO FARMS INC 21300.0 kg 120999.0 BOX FRESH MELON CANTALOUPE
2026-03-17 GWFCGTC065762 AYCO FARMS INC 21300.0 kg 40900.0 BOX FRESH MELON HONEY DEW
2026-03-17 GWFCGTC065761J AYCO FARMS INC 21300.0 kg 120999.0 BOX FRESH MELON CANTALOUPE
2026-03-17 GWFCGTC065763A AYCO FARMS INC 21300.0 kg 120999.0 BOX FRESH MELON CANTALOUPE
2026-03-17 GWFCGTC065763B AYCO FARMS INC 21300.0 kg 120999.0 BOX FRESH MELON CANTALOUPE
2026-03-17 GWFCGTC065763 AYCO FARMS INC 21300.0 kg 80711.0 BOX FRESH WATERMELON SEEDLESS
2026-03-17 GWFCGTC065763C AYCO FARMS INC 21300.0 kg 40900.0 BOX FRESH MELON HONEY DEW
2026-03-17 GWFCGTC065763D AYCO FARMS INC 21300.0 kg 120999.0 BOX FRESH MELON CANTALOUPE
Contact information Request
to request contact information.
Other address
RUTA HACIA ALDEA LAS OVEJAS KM 91 COL JORGE M BARRIOS FALLA 2 KM AD ENTRO ALDEA EL PASO DE LOS JALAPAS EL JICARO GT
RUTA HACIA ALDEA LAS OVEJAS KM 91 COL JORGE M BARRIOS FALLA 2 KM AD ENTRO ALDEA EL PASO DE LOS JALAPAS EL JICARO GT
CALLE SECTOR ESCUELA TEMPISQUE KM 151 ALDEA RIO HONDOGT
RUTA HACIA ALDEA LAS OVEJAS KM 91 COL JORGE M BARRIOS FALLA 2 KM AD ENTRO ALDEA EL PASO DE LOS JALAPAS EL JICAROGT
RUTA HACIA ALDEA LAS OVEJAS KM 91 COL JORGE M BARRIOS FALLA 2 KM AD ENTRO ALDEA EL PASO DE LOS JALAPAS EL JICAROGT
RUTA HACIA ALDEA LAS OVEJAS KM91 C OL JORGE M BARRIOS FALLA 2 KM AD ENTRO ALDEA EL PASO DE LOS JALAPAS EL JICARO 02005 GT
CALLE SECTOR ESCUELA TEMPISQUE KM 151 ALDEA RIO HONDO GT
NIT:59759755 RUTA HACIA ALDEA LAS OFALLA 2 KM ADENTRO ALDEA EL PASO DEEL JICARO EL PROGRESO
RUTA HACIA ALDEA LAS OVEJAS KM 91 COL JORGE M BARRIOS FALLA 2 KM AD ENTRO ALDEA EL PASO DE LOS JALAPAS EL JICARO02005 GT
RUTA HACIA ALDEA LAS OVEJAS KM 91 COL JORGE M BARRIOS FALLA 2 KM AD ENTRO ALDEAEL PASO DE LOS JALAPAS EL JICARO GT
RUTA HACIA ALDEA LAS OVEJAS KM 91 COL JORGE M BARRIOS FALLA 2KM AD ENTRO ALDEA EL PASO DE LOS JALAPAS EL JICARO 02005 GT
RUTA HACIA ALDEA LAS OVEJAS KM 91 COL JORGEM BARRIOS FALLA 2 KM AD ENTRO ALDEA EL PASO DE LOS JALAPAS EL JICARO 02005 GT
RUTA HACIA ALDEA LAS OVEJAS KM 91C OL JORGE M BARRIOS FALLA 2 KM AD ENTRO ALDEA EL PASO DE LOS JALAPAS ELJICARO 02005 GT